Temperature
2 3 3 3 2 2 2 2 2 3 3 3 3 3 3 3 2 2 1 1 0 0 -0 -0 0 0 0 0 0 0 0 0 0 0 0 0 0 0 1 1 1 1 1 1
1 2 2 2 2 2 2 2 2 2 2 3 3 3 3 2 2 1 1 0 0 -0 -0 -1 -1 -1 -1 -0 -0 -0 -0 -0 -0 -0 -0 -0 -0 0 0 0 1 1 1 1
1 1 1 1 1 1 1 1 2 1 2 2 1 1 2 2 1 1 0 0 -0 -1 -1 -1 -1 -1 -1 -1 -1 -1 -1 -1 -1 -1 -1 -0 -0 -0 -0 -0 0 0 0 0
0 1 1 2 2 2 1 1 1 1 1 1 1 2 2 1 1 0 -0 -0 -1 -1 -2 -2 -2 -2 -2 -2 -1 -1 -1 -1 -1 -1 -1 -1 -1 -1 -1 -1 -1 -0 -0 -0
0 0 1 2 1 1 0 -0 1 0 0 1 1 1 1 1 0 -0 -1 -1 -2 -2 -2 -2 -2 -2 -2 -2 -2 -2 -2 -2 -2 -2 -1 -1 -1 -1 -1 -1 -1 -1 -1 -1
-0 0 1 2 1 1 0 -0 0 0 -0 -0 -0 -1 -1 -0 -1 -1 -2 -2 -2 -2 -3 -3 -3 -3 -3 -3 -3 -2 -2 -2 -2 -2 -2 -2 -2 -2 -2 -2 -1 -1 -1 -1
-1 0 1 0 -0 0 -0 -0 -1 -0 -1 -1 -2 -2 -1 -1 -2 -2 -2 -2 -3 -3 -3 -3 -3 -3 -3 -3 -3 -3 -3 -3 -3 -3 -2 -2 -2 -2 -2 -2 -2 -2 -2 -2
-1 -0 0 -1 -1 -1 -1 -1 -1 -1 -1 -1 -2 -2 -2 -2 -2 -3 -3 -3 -3 -3 -3 -3 -3 -3 -3 -3 -3 -3 -3 -3 -3 -3 -3 -3 -3 -3 -3 -2 -2 -2 -2 -2
-1 -0 -1 -1 -1 -1 -1 -1 -1 -2 -2 -2 -2 -3 -3 -3 -3 -3 -3 -4 -4 -4 -4 -4 -4 -4 -4 -4 -4 -4 -3 -3 -3 -3 -3 -3 -3 -3 -3 -3 -3 -3 -3 -3
-2 -1 -1 -1 -1 -1 -1 -2 -2 -2 -2 -2 -3 -3 -3 -4 -4 -4 -4 -4 -4 -4 -4 -4 -4 -4 -4 -4 -4 -4 -4 -4 -4 -4 -4 -4 -4 -4 -4 -4 -4 -4 -4 -4
-3 -2 -2 -1 -1 -2 -2 -2 -2 -2 -2 -3 -3 -3 -4 -4 -4 -4 -4 -4 -4 -4 -4 -4 -4 -4 -4 -4 -4 -4 -4 -4 -5 -4 -4 -4 -4 -4 -4 -4 -4 -4 -4 -4
-2 -2 -2 -2 -2 -2 -2 -3 -3 -3 -3 -3 -3 -4 -4 -4 -4 -4 -4 -4 -5 -5 -5 -5 -5 -4 -5 -4 -5 -5 -5 -5 -5 -5 -5 -5 -5 -5 -5 -5 -5 -5 -5 -5
-2 -2 -2 -2 -2 -2 -3 -3 -3 -3 -3 -3 -4 -4 -4 -4 -4 -5 -5 -5 -5 -5 -5 -5 -5 -5 -5 -5 -5 -5 -5 -5 -5 -5 -5 -5 -5 -5 -5 -5 -5 -5 -5 -5
-2 -3 -3 -3 -3 -3 -3 -3 -4 -4 -4 -4 -4 -4 -4 -4 -4 -5 -5 -5 -5 -5 -5 -5 -5 -5 -5 -5 -5 -5 -5 -5 -6 -6 -6 -6 -6 -6 -6 -6 -5 -5 -5 -5
-3 -3 -3 -3 -4 -4 -4 -4 -4 -4 -4 -4 -4 -4 -5 -5 -5 -5 -5 -5 -5 -5 -5 -6 -6 -5 -5 -5 -5 -6 -6 -6 -6 -6 -6 -6 -6 -6 -6 -6 -6 -6 -5 -5
-4 -4 -4 -4 -4 -4 -4 -4 -4 -4 -5 -5 -5 -5 -5 -5 -5 -5 -5 -6 -6 -5 -6 -6 -6 -6 -6 -6 -6 -6 -6 -6 -6 -6 -6 -6 -6 -6 -6 -6 -6 -6 -6 -6
-4 -5 -5 -5 -5 -5 -5 -5 -5 -5 -5 -5 -5 -5 -5 -5 -5 -5 -5 -6 -6 -6 -6 -6 -6 -6 -6 -6 -6 -6 -6 -6 -7 -7 -7 -7 -7 -7 -7 -7 -6 -6 -6 -6
-5 -5 -5 -5 -5 -5 -5 -5 -5 -5 -5 -5 -5 -5 -5 -6 -6 -6 -6 -6 -6 -6 -6 -6 -7 -7 -6 -6 -6 -7 -7 -7 -7 -7 -7 -7 -7 -7 -7 -7 -7 -7 -6 -6
-5 -5 -5 -5 -5 -5 -5 -5 -5 -5 -5 -5 -6 -6 -6 -6 -6 -6 -6 -6 -6 -6 -6 -6 -7 -7 -7 -7 -7 -7 -7 -7 -7 -7 -7 -7 -7 -7 -7 -7 -7 -7 -7 -7
-5 -5 -5 -5 -5 -5 -5 -5 -6 -6 -6 -6 -6 -6 -6 -6 -6 -6 -6 -6 -7 -7 -7 -7 -7 -7 -7 -7 -7 -7 -7 -7 -7 -7 -7 -7 -7 -7 -7 -8 -8 -7 -7 -7
-5 -5 -5 -6 -6 -6 -6 -6 -6 -6 -6 -6 -6 -6 -6 -6 -7 -7 -7 -7 -7 -7 -7 -7 -7 -7 -7 -7 -7 -7 -7 -8 -8 -8 -7 -7 -7 -7 -8 -8 -8 -8 -7 -7
-5 -6 -6 -6 -6 -6 -6 -6 -6 -6 -6 -6 -7 -7 -7 -7 -7 -7 -7 -7 -7 -7 -7 -7 -7 -7 -7 -7 -7 -7 -8 -8 -8 -8 -8 -8 -8 -8 -8 -8 -8 -8 -7 -7
-6 -6 -6 -6 -6 -6 -6 -6 -6 -6 -6 -7 -7 -7 -7 -7 -7 -7 -7 -7 -7 -7 -8 -7 -8 -8 -8 -8 -8 -8 -8 -8 -8 -8 -8 -8 -8 -8 -8 -8 -8 -8 -8 -7
-6 -6 -6 -6 -6 -6 -6 -6 -6 -7 -7 -7 -7 -7 -7 -7 -7 -7 -8 -8 -8 -8 -8 -8 -8 -8 -8 -8 -8 -8 -8 -8 -8 -8 -8 -8 -8 -8 -8 -8 -8 -8 -8 -8
-6 -6 -6 -6 -7 -7 -7 -7 -7 -7 -7 -7 -7 -7 -7 -8 -8 -8 -8 -8 -8 -8 -8 -8 -8 -8 -8 -8 -8 -8 -8 -8 -9 -9 -9 -9 -8 -8 -8 -8 -8 -8 -8 -8
-6 -6 -7 -7 -7 -7 -7 -7 -7 -7 -7 -7 -7 -7 -7 -8 -8 -8 -8 -8 -8 -8 -8 -8 -8 -8 -8 -8 -8 -8 -8 -8 -8 -9 -9 -9 -9 -9 -9 -8 -8 -8 -8 -8
-6 -7 -7 -7 -7 -7 -7 -7 -7 -7 -7 -7 -7 -7 -8 -8 -8 -8 -8 -8 -8 -8 -8 -8 -8 -8 -8 -8 -9 -9 -9 -9 -9 -9 -9 -9 -9 -9 -9 -8 -8 -8 -8 -8
Wind_Speed
6 6 5 6 7 9 10 9 8 8 8 8 4 2 2 1 1 2 2 2 2 2 3 3 3 3 3 3 4 4 3 4 4 3 3 3 3 3 3 3 4 3 4 4
5 5 5 7 9 10 11 10 11 10 10 5 3 2 2 2 2 3 3 3 3 3 4 4 4 4 4 4 4 4 4 4 4 4 3 3 3 4 4 4 4 4 4 4
3 2 4 8 9 10 8 8 8 11 9 3 4 4 4 4 4 4 4 3 3 3 4 4 4 4 5 5 5 4 4 5 4 4 3 4 4 4 4 5 5 5 5 5
2 2 6 5 1 5 7 7 6 6 4 3 4 5 4 3 2 2 3 3 4 4 4 4 4 4 5 5 5 5 5 5 4 4 4 4 4 4 5 4 5 5 5 5
2 4 7 3 2 3 5 6 5 6 5 4 3 4 2 1 1 2 3 4 4 3 4 4 4 4 4 4 4 4 4 5 5 5 5 5 5 5 5 4 5 4 4 4
3 4 5 2 1 2 2 4 2 2 4 3 1 3 3 2 3 4 3 3 3 3 3 4 4 4 4 4 4 5 5 5 5 5 5 5 5 5 4 4 4 4 4 4
6 5 5 1 1 3 2 4 2 2 2 1 2 4 3 3 4 3 3 3 3 2 3 3 4 3 4 5 5 5 5 5 5 4 5 4 4 4 4 3 3 3 4 4
5 6 6 2 3 3 3 1 1 2 2 1 2 3 2 3 3 3 3 3 3 3 3 3 3 3 4 5 5 4 4 4 4 4 4 4 3 3 3 3 3 3 3 3
5 5 1 3 3 2 0 1 2 2 2 1 2 3 3 3 2 3 3 3 3 3 4 4 4 3 4 5 4 4 4 4 4 4 4 4 3 3 3 3 3 3 3 3
3 4 2 2 2 1 1 1 2 2 1 0 1 2 3 3 3 3 3 3 3 3 4 5 5 4 4 5 4 3 3 4 4 4 4 3 3 3 3 3 3 3 3 3
5 4 3 2 2 2 1 1 1 2 1 1 1 1 2 2 3 3 3 3 3 3 4 5 5 5 5 4 3 3 3 4 4 4 4 3 3 3 3 3 3 4 3 4
4 2 3 3 1 1 1 1 1 1 1 1 1 2 2 2 2 3 3 3 3 3 4 5 5 6 5 4 3 3 3 3 3 3 3 3 3 4 4 4 6 7 7 6
3 2 2 3 2 0 1 2 1 1 2 2 2 1 1 2 2 3 3 3 3 4 4 5 5 6 5 4 3 3 3 3 3 3 3 3 3 3 4 5 6 7 7 7
2 2 3 3 2 1 1 1 1 1 1 1 1 1 1 2 2 3 3 3 4 4 4 4 5 5 5 4 4 3 3 4 4 3 3 3 3 3 3 4 4 4 5 6
2 3 3 2 1 1 0 0 0 1 1 1 1 1 1 2 3 4 4 3 3 4 4 4 5 6 5 4 4 4 3 3 3 3 3 3 3 3 3 4 4 4 4 4
2 3 3 3 3 2 1 1 1 2 2 2 2 2 2 2 3 3 3 3 3 4 4 5 5 6 5 4 4 3 3 4 4 3 3 3 3 3 3 3 3 3 3 3
2 3 3 3 3 3 3 3 3 3 2 2 2 2 2 2 3 3 3 3 3 3 4 4 5 6 5 4 4 3 3 4 5 4 3 3 3 3 3 3 3 3 3 3
4 3 3 3 3 3 3 2 2 2 2 2 2 2 2 2 3 3 4 4 4 4 4 4 4 5 5 4 4 3 3 3 3 3 3 3 3 3 3 3 3 3 3 3
2 2 2 2 2 2 2 2 2 2 2 1 1 2 2 2 2 3 3 3 3 4 5 5 7 5 5 5 5 3 3 3 3 3 3 4 3 2 2 2 2 2 3 3
1 1 1 1 1 1 2 2 1 1 1 1 1 1 2 2 2 2 3 3 3 3 4 5 5 4 4 5 5 3 3 3 3 3 3 2 2 2 2 2 2 2 2 2
1 1 0 0 1 1 1 1 1 1 1 1 1 2 2 3 2 2 2 3 4 3 4 5 4 4 4 5 5 3 3 4 3 3 3 3 3 3 2 2 2 2 2 2
1 1 1 1 1 1 1 1 1 1 1 1 1 1 2 2 2 2 2 3 3 5 4 3 3 5 6 6 3 3 3 4 3 3 3 3 3 3 3 2 2 2 2 2
1 1 1 1 1 1 1 1 1 1 1 1 2 2 2 2 2 2 3 3 3 5 4 3 5 7 7 4 3 3 3 3 3 3 3 3 3 3 3 3 2 2 2 3
0 0 1 0 1 0 1 2 1 1 1 2 2 2 2 2 2 2 2 4 5 6 4 5 7 7 6 3 3 3 3 3 3 3 3 3 3 3 3 3 3 3 3 3
1 1 1 1 1 1 1 1 1 1 1 1 1 2 1 1 2 3 3 3 5 5 4 5 7 7 4 3 3 3 3 3 3 3 3 3 3 3 3 3 3 3 3 3
1 1 1 2 2 1 1 1 1 1 1 1 2 1 1 1 1 2 2 3 3 4 4 3 4 4 3 3 3 3 3 4 4 3 3 3 3 3 3 3 4 3 3 3
1 1 0 0 0 1 1 1 1 1 1 1 2 2 1 1 2 2 2 3 3 3 3 3 3 3 3 3 3 3 3 3 3 3 3 3 3 3 3 4 3 3 3 3
Wind_Direction
274 284 271 252 235 215 216 223 228 246 252 261 256 255 265 277 295 305 304 304 306 313 318 320 324 323 328 328 324 317 311 302 294 290 288 287 288 284 277 275 275 268 269 269
273 260 258 263 247 228 228 235 245 264 272 268 296 313 293 288 286 279 283 290 300 314 319 322 323 321 322 319 311 309 304 301 299 297 295 288 278 280 280 274 271 268 262 261
264 291 297 262 231 215 223 226 224 241 250 294 313 293 276 274 268 269 273 293 302 308 309 313 314 318 315 310 314 313 305 300 299 298 296 291 285 281 274 271 269 265 262 258
266 291 245 242 209 194 221 240 231 246 270 281 275 279 277 259 250 278 304 305 306 310 309 309 313 314 308 305 305 301 299 298 300 296 292 292 288 281 275 272 271 267 263 261
221 252 264 253 212 178 204 254 236 240 262 285 314 309 291 106 75 321 311 308 304 302 301 302 305 306 304 296 298 299 297 296 300 297 291 288 284 281 278 274 272 269 265 263
223 240 247 229 116 95 117 269 317 255 260 267 292 265 262 11 1 340 331 320 310 306 306 306 309 313 308 301 300 294 292 295 297 295 289 284 283 281 279 279 276 275 273 271
229 242 260 241 149 114 168 251 338 345 308 275 237 241 270 329 338 343 334 328 326 320 312 306 312 315 305 301 294 293 295 294 295 296 294 289 287 284 285 284 285 283 280 282
202 224 244 157 139 186 222 317 334 330 332 309 300 318 334 334 334 338 336 335 334 330 319 313 313 310 303 296 296 304 303 299 299 301 300 301 295 290 284 281 282 282 283 288
205 220 204 157 173 190 157 284 294 322 325 336 314 312 322 326 326 330 333 330 332 331 323 320 315 308 299 299 301 304 311 309 301 300 303 304 294 288 286 281 280 282 280 284
261 255 237 216 219 223 217 265 298 308 306 339 287 300 316 319 323 329 329 325 325 325 322 318 315 309 302 305 305 301 304 306 303 302 302 305 300 288 281 280 277 280 281 284
247 269 298 261 237 242 241 283 311 331 331 231 243 295 298 309 314 318 319 320 321 315 312 315 318 317 315 313 311 303 298 301 305 303 300 300 299 288 277 268 268 273 274 277
236 235 230 263 278 263 217 237 258 280 316 320 272 270 290 299 307 312 313 317 317 314 316 318 322 321 319 318 313 299 295 299 300 299 299 296 297 303 297 283 290 287 282 277
243 292 279 275 289 291 255 259 260 256 249 282 294 275 281 299 312 315 315 316 315 318 320 322 324 323 325 323 318 302 291 294 296 295 294 294 295 297 306 309 301 298 295 289
249 256 262 254 261 297 284 282 291 290 270 260 270 303 313 314 317 317 312 313 319 322 323 325 326 326 327 328 323 309 299 298 299 292 292 293 289 290 294 300 308 309 306 302
250 242 243 245 242 279 306 305 351 310 316 334 337 317 308 310 307 307 311 318 325 326 328 332 332 329 332 333 326 313 300 297 297 300 302 301 301 299 295 293 296 300 308 311
252 250 238 229 239 251 262 260 259 275 285 294 307 302 299 299 302 308 315 325 329 323 324 328 326 327 334 333 325 314 305 302 303 300 300 303 305 302 299 297 298 299 303 308
214 239 236 242 247 251 245 244 242 253 262 270 281 295 310 318 321 321 326 330 323 313 316 321 324 332 339 338 324 311 309 310 311 308 302 300 303 300 294 293 297 302 302 305
226 232 234 234 238 251 263 261 253 258 263 266 280 289 290 293 293 301 313 324 330 327 325 325 331 338 339 335 328 320 314 308 306 304 305 306 304 300 297 295 299 305 312 323
257 243 242 239 233 228 245 254 262 267 271 271 274 276 278 279 283 297 312 321 322 320 322 329 335 342 334 332 335 328 323 318 316 310 307 309 315 318 316 314 315 321 329 334
286 261 243 251 250 233 246 253 257 267 268 264 273 289 301 302 305 308 311 305 299 301 309 325 334 333 330 330 338 331 325 321 318 319 321 321 313 311 310 313 318 323 329 333
258 245 236 255 292 290 260 245 230 255 287 280 247 259 278 296 302 300 307 308 312 322 327 331 337 329 329 332 335 338 333 331 330 331 331 326 319 317 316 318 324 326 326 328
240 224 232 232 259 295 299 282 223 236 278 288 280 276 289 298 306 307 290 282 301 325 339 331 326 329 335 335 336 335 334 334 330 331 329 325 321 319 318 319 318 318 318 318
231 223 231 231 233 272 322 322 277 242 250 260 264 266 270 280 284 294 302 308 324 327 336 321 325 331 337 342 337 331 329 329 327 326 323 319 317 318 318 318 317 317 315 312
234 226 236 217 136 122 304 303 307 288 259 267 263 258 264 293 298 284 291 309 324 326 329 322 333 337 343 352 338 329 326 325 323 321 319 318 316 315 314 314 315 317 314 313
218 207 183 165 196 240 251 262 310 298 295 293 287 285 278 267 274 299 317 315 319 331 334 330 335 340 346 335 329 326 326 323 321 320 318 318 317 316 314 312 312 313 312 309
221 230 231 225 220 226 227 221 260 275 286 307 311 311 316 324 321 314 316 316 319 330 335 331 330 332 335 331 328 327 325 322 323 322 318 314 311 310 309 308 306 305 304 304
229 228 213 255 265 241 245 249 250 265 266 269 293 301 311 324 329 326 326 330 332 332 329 329 329 330 330 329 328 327 324 319 315 311 309 307 304 302 302 300 300 301 304 307
Height
1471 1468 1467 1467 1468 1469 1472 1469 1470 1463 1461 1457 1457 1458 1458 1459 1459 1459 1459 1459 1458 1457 1456 1455 1454 1453 1452 1451 1450 1449 1448 1447 1446 1446 1446 1445 1445 1445 1445 1444 1445 1445 1445 1445
1471 1466 1466 1466 1463 1464 1465 1465 1464 1462 1460 1455 1455 1456 1456 1457 1457 1457 1457 1456 1456 1455 1454 1452 1451 1450 1449 1448 1447 1446 1445 1444 1443 1443 1442 1442 1441 1441 1441 1441 1441 1441 1441 1441
1469 1466 1465 1465 1458 1459 1459 1457 1459 1459 1456 1454 1454 1454 1454 1454 1454 1454 1454 1454 1453 1452 1450 1449 1448 1447 1445 1444 1443 1443 1442 1441 1440 1440 1439 1438 1438 1438 1437 1437 1437 1436 1436 1436
1472 1470 1470 1454 1450 1450 1453 1453 1453 1453 1452 1452 1453 1452 1451 1451 1452 1451 1451 1451 1449 1448 1447 1446 1445 1443 1442 1441 1440 1439 1438 1437 1437 1436 1435 1435 1434 1434 1433 1433 1433 1432 1432 1432
1471 1468 1457 1451 1449 1450 1453 1453 1450 1450 1450 1450 1450 1449 1449 1449 1449 1449 1449 1448 1446 1445 1444 1442 1441 1440 1438 1437 1437 1436 1435 1434 1434 1433 1432 1431 1430 1430 1430 1429 1428 1428 1428 1428
1468 1466 1459 1450 1449 1448 1451 1453 1448 1447 1448 1448 1449 1451 1449 1447 1446 1446 1445 1444 1443 1441 1440 1438 1437 1436 1435 1434 1433 1432 1431 1431 1430 1429 1428 1427 1426 1426 1426 1425 1424 1424 1423 1424
1467 1463 1454 1451 1449 1450 1456 1452 1448 1447 1446 1446 1447 1447 1446 1445 1443 1442 1441 1440 1439 1438 1437 1435 1434 1433 1432 1430 1429 1428 1428 1427 1426 1426 1425 1424 1423 1422 1421 1421 1420 1419 1419 1419
1462 1461 1456 1450 1450 1452 1451 1448 1447 1446 1445 1445 1444 1443 1442 1442 1441 1440 1438 1437 1436 1435 1434 1433 1431 1430 1428 1427 1426 1425 1425 1424 1423 1422 1421 1420 1419 1418 1417 1417 1416 1415 1415 1415
1454 1453 1448 1447 1447 1447 1447 1446 1445 1445 1444 1443 1442 1441 1441 1439 1438 1437 1436 1435 1434 1433 1431 1430 1429 1428 1426 1424 1424 1423 1421 1420 1419 1418 1417 1416 1415 1414 1413 1413 1412 1411 1411 1410
1451 1447 1445 1445 1445 1445 1445 1445 1444 1443 1442 1441 1441 1440 1439 1438 1437 1435 1434 1433 1432 1431 1429 1427 1426 1425 1424 1422 1421 1420 1418 1417 1416 1415 1414 1413 1412 1411 1410 1409 1409 1408 1408 1407
1449 1446 1444 1443 1443 1443 1443 1442 1442 1441 1441 1440 1439 1438 1437 1436 1435 1434 1433 1431 1430 1429 1427 1425 1424 1422 1421 1419 1418 1417 1416 1415 1413 1412 1411 1410 1409 1408 1407 1406 1406 1405 1404 1404
1444 1443 1443 1442 1441 1441 1440 1440 1439 1439 1438 1438 1437 1436 1435 1434 1433 1432 1431 1429 1428 1427 1425 1423 1421 1419 1418 1417 1415 1414 1413 1412 1411 1410 1409 1408 1406 1405 1404 1404 1403 1402 1402 1401
1440 1440 1440 1439 1439 1438 1438 1437 1437 1437 1436 1435 1435 1434 1433 1432 1431 1430 1429 1427 1426 1424 1423 1421 1419 1417 1415 1414 1413 1411 1410 1409 1408 1407 1406 1405 1404 1403 1401 1401 1400 1399 1398 1397
1438 1438 1437 1437 1437 1436 1435 1435 1434 1434 1434 1433 1433 1432 1431 1430 1429 1428 1426 1425 1424 1422 1420 1418 1416 1414 1413 1411 1410 1408 1407 1407 1406 1404 1404 1403 1401 1400 1399 1398 1396 1395 1395 1394
1435 1435 1435 1434 1434 1434 1433 1433 1432 1431 1431 1431 1430 1430 1429 1427 1426 1425 1424 1423 1421 1420 1418 1416 1414 1412 1411 1409 1407 1406 1405 1404 1403 1402 1401 1400 1399 1398 1397 1396 1394 1393 1392 1392
1432 1432 1432 1431 1431 1431 1431 1430 1430 1429 1429 1428 1428 1427 1427 1426 1424 1423 1422 1421 1419 1417 1416 1414 1412 1410 1409 1407 1405 1404 1403 1402 1401 1400 1399 1398 1397 1396 1394 1393 1392 1391 1390 1390
1428 1428 1428 1428 1428 1428 1428 1428 1428 1427 1427 1426 1426 1425 1424 1423 1422 1421 1420 1419 1418 1416 1415 1413 1411 1409 1407 1405 1403 1402 1401 1400 1399 1398 1396 1395 1394 1393 1392 1391 1390 1389 1388 1388
1425 1425 1425 1426 1425 1425 1425 1425 1425 1425 1425 1424 1424 1423 1422 1421 1420 1419 1418 1417 1415 1414 1413 1411 1409 1407 1405 1404 1402 1400 1399 1398 1397 1396 1395 1394 1392 1391 1390 1389 1388 1387 1386 1386
1422 1423 1423 1423 1423 1423 1423 1423 1423 1423 1423 1422 1422 1421 1420 1419 1419 1418 1416 1415 1413 1411 1410 1409 1408 1406 1404 1402 1401 1399 1398 1397 1395 1394 1393 1392 1391 1390 1388 1387 1386 1385 1384 1384
1421 1421 1421 1421 1421 1421 1421 1421 1421 1421 1421 1420 1419 1419 1418 1418 1417 1416 1415 1413 1412 1411 1409 1408 1406 1404 1403 1401 1399 1398 1397 1395 1394 1393 1392 1391 1389 1388 1387 1386 1385 1384 1383 1382
1419 1419 1419 1419 1419 1419 1419 1419 1419 1419 1419 1418 1418 1417 1416 1416 1415 1414 1413 1411 1411 1410 1408 1407 1405 1403 1402 1400 1399 1397 1396 1394 1393 1392 1391 1389 1388 1387 1386 1384 1383 1383 1382 1381
1418 1418 1418 1418 1418 1418 1418 1418 1418 1417 1417 1416 1416 1415 1415 1414 1413 1412 1412 1411 1410 1408 1407 1405 1404 1403 1401 1400 1398 1396 1395 1393 1392 1391 1390 1388 1387 1386 1384 1383 1382 1382 1381 1380
1416 1416 1416 1417 1416 1416 1416 1417 1416 1416 1415 1415 1414 1414 1413 1412 1412 1411 1410 1410 1408 1407 1406 1404 1403 1402 1400 1398 1397 1395 1394 1392 1391 1390 1389 1387 1386 1385 1383 1382 1381 1380 1379 1378
1415 1415 1415 1415 1415 1415 1415 1415 1415 1415 1414 1414 1413 1413 1412 1411 1410 1410 1409 1408 1407 1406 1404 1403 1402 1400 1399 1397 1396 1394 1393 1391 1390 1389 1387 1386 1385 1383 1382 1381 1380 1379 1378 1377
1414 1414 1414 1414 1414 1414 1414 1414 1414 1413 1413 1412 1412 1411 1411 1410 1409 1408 1408 1407 1406 1404 1403 1402 1400 1399 1397 1396 1394 1393 1392 1390 1389 1387 1386 1385 1383 1382 1381 1380 1379 1378 1377 1376
1413 1413 1413 1413 1413 1413 1413 1413 1412 1412 1412 1411 1411 1410 1409 1409 1408 1407 1406 1405 1404 1403 1402 1400 1399 1397 1396 1395 1393 1392 1390 1389 1388 1386 1385 1384 1383 1381 1380 1379 1378 1377 1376 1375
1412 1412 1412 1412 1412 1412 1412 1412 1411 1411 1411 1410 1409 1409 1408 1408 1407 1406 1405 1404 1403 1402 1400 1399 1398 1396 1395 1393 1392 1391 1389 1388 1387 1385 1384 1383 1382 1380 1379 1378 1377 1376 1375 1374